Regional Weather Roundup
Issued by NWS Cleveland, OH

Home | Current Version | Previous Version | Graphics & Text | Print | Product List | Glossary On
Versions: 1 2 3 4 5 6 7 8 9 10 11 12 13 14 15 16 17 18 19 20 21 22 23 24 25 26 27 28 29 30 31 32 33 34 35 36 37 38 39 40 41 42 43 44 45 46 47 48 49 50
000
ASUS41 KCLE 181310
RWRCLE
OHIO REGIONAL WEATHER ROUNDUP
NATIONAL WEATHER SERVICE CLEVELAND, OH
800 AM EST WED JAN 18 2017

NOTE: "FAIR" INDICATES FEW OR NO CLOUDS BELOW 12,000 FEET WITH NO
SIGNIFICANT WEATHER AND/OR OBSTRUCTIONS TO VISIBILITY.

OHZ001>008-015>018-024>027-034-035-043-044-181400-
   NORTHWEST OHIO

CITY           SKY/WX    TMP DP  RH WIND       PRES   REMARKS
DEFIANCE       CLOUDY    36  33  89 W6        30.09R FOG
FINDLAY        CLOUDY    37  33  85 W14       30.07R
TOLEDO EXPRESS CLOUDY    35  35 100 W14       30.06R WCI  26
TOLEDO EXEC    CLOUDY    37  35  92 W10       30.07R
LIMA           CLOUDY    36  34  92 W14       30.09R
$$

OHZ009>014-019>023-028>033-038-089-181400-
   NORTHEAST OHIO

CITY           SKY/WX    TMP DP  RH WIND       PRES   REMARKS
CLE-HOPKINS    CLOUDY    39  34  82 W13       30.06S
CLE-LAKEFRONT  CLOUDY    37  34  89 W13       30.04R
CUY CO. ARPT   LGT RAIN  39  36  87 W20       30.04R
LORAIN-ELYRIA  CLOUDY    36  32  85 W10       30.05R
ASHTABULA      CLOUDY    36  35  96 W13       30.01R
AKRON-CANTON   LGT RAIN  40  34  79 W13       30.03R
WOOSTER        CLOUDY    36  33  89 W14       30.05R
MANSFIELD      CLOUDY    35  34  96 W10G18    30.05R FOG     WCI  27
YOUNGSTOWN     DRIZZLE   38  36  92 W9        30.01R
$$

OHZ042-051>053-060>062-070>072-077>081-181400-
  SOUTHWEST OHIO

CITY           SKY/WX    TMP DP  RH WIND       PRES   REMARKS
CINC-COVINGTON CLOUDY    37  35  92 W12       30.16R
CINC-LUNKEN    CLOUDY    40  35  83 W7        30.18R
HAMILTON       CLOUDY    38  36  92 W5        30.17R
DAYTON         CLOUDY    36  33  89 W10       30.13R
WRIGHT-PAT AFB CLOUDY    37  35  90 W9        30.13R
DAYTON GENERAL CLOUDY    37  34  89 W7        30.13R
WILMINGTON     CLOUDY    36  33  89 W10       30.13R
$$

OHZ036-037-039>041-045>050-054>059-063>069-073>076-082>088-181400-
  CENTRAL AND SOUTHEAST OHIO

CITY           SKY/WX    TMP DP  RH WIND       PRES   REMARKS
COLUMBUS       CLOUDY    39  33  79 W13       30.10R
OSU AIRPORT    CLOUDY    37  34  89 W14G20    30.10R
BOLTON FIELD   CLOUDY    36  34  93 W6        30.12R
RICKENBACK AFB   N/A     37  33  87 W12       30.12R
NEWARK         CLOUDY    38  32  79 W14       30.10R
MARION         CLOUDY    36  34  92 W10       30.09R FOG
LANCASTER      CLOUDY    39  34  82 W10       30.11R
ZANESVILLE     CLOUDY    40  34  79 W9        30.08R
NEW PHILLY     NOT AVBL
$$




USA.gov is the U.S. government's official web portal to all federal, state and local government web resources and services.